Voltar ao catálogo

DMSP 5D-2 F14 DEB

AtivoPO
NORAD 62943·DEBRIS·🇺🇸 United States

Lançado Apr 4, 1997 de Vandenberg Space Force Base

Loading…

Próximas Passagens (próximas 24 horas)

TLE

AtualizadoSource: Space-Track

Época: Sep 14, 2026, 12:02 UTC

1 62943U 97012P   26257.50143298  .00055701  00000-0  96771-2 0  9997
2 62943  99.0024 324.1713 0020351 243.5904 116.3210 14.67741522522113

Acompanhe DMSP 5D-2 F14 DEB em tempo real com AllMySat

Download on the App Store